Location: Proctor
(47.8934°N, 114.3048°W)
Time: 11:35:44
(UTC+00:00)

AIST 2D - Visible Passes

Search period start: 30 June 2022 00:00
Search period end: 10 July 2022 00:00
Orbit: 433 x 449 km, 97.1° (Epoch: 30 June)

Date Brightness Start Highest point End Pass type
(mag) Time Alt. Az. Time Alt. Az. Time Alt. Az.
30 Jun ? 05:46:51 10° N 05:49:59 40° WNW 05:53:05 10° SW visible
01 Jul ? 05:09:02 10° NNE 05:12:20 62° E 05:15:01 14° S visible
01 Jul ? 06:43:57 10° NW 06:44:27 10° WNW 06:44:57 10° WNW visible
02 Jul ? 04:31:52 10° NE 04:34:28 21° E 04:36:56 11° SE visible
02 Jul ? 06:04:16 10° NNW 06:07:04 25° WNW 06:09:51 10° SW visible
03 Jul ? 05:26:07 10° N 05:29:28 76° WNW 05:32:17 14° SSW visible
04 Jul ? 04:48:35 10° NNE 04:51:39 33° E 04:54:10 13° SSE visible
04 Jul ? 06:21:49 10° NNW 06:24:02 17° WNW 06:26:14 10° WSW visible
05 Jul ? 05:43:17 10° N 05:46:29 44° WNW 05:49:29 11° SW visible
06 Jul ? 05:05:27 10° NNE 05:08:44 56° E 05:11:20 15° S visible
06 Jul ? 06:39:50 10° NW 06:40:54 11° WNW 06:41:57 10° W visible
07 Jul ? 04:28:17 10° NE 04:30:46 19° E 04:33:10 10° SE visible
07 Jul ? 06:00:31 10° N 06:03:24 27° WNW 06:06:18 10° SW visible
08 Jul ? 05:22:22 10° N 05:25:43 84° WNW 05:28:26 15° SSW visible
09 Jul ? 04:44:48 10° NNE 04:47:48 30° E 04:50:13 14° SSE visible
09 Jul ? 06:17:51 10° NNW 06:20:13 18° WNW 06:22:35 10° WSW visible
